DW8253 Weather Reports


time (UTC)temp
C
wind
direction
speed
KPH
gust
KPH
rain 1hr
cm
rain 24hr
cm
rain mn
cm
humidity
%
barometer
mb
20260507093750 9 18 6.4 11.3 0.00 0.00 0.00 73 866.5
20260507093701 10 303 4.8 11.3 0.00 0.00 0.00 71 866.6
20260507091739 10 1 6.4 12.9 0.00 0.00 0.00 69 866.6
20260507090739 9 347 9.7 14.5 0.00 0.00 0.00 70 866.6
20260507085733 9 353 8.0 14.5 0.00 0.00 0.00 71 866.5
20260507084734 10 317 6.4 9.7 0.00 0.00 0.00 69 866.6
20260507083721 10 341 6.4 9.7 0.00 0.00 0.00 68 866.7
20260507082722 10 326 6.4 11.3 0.00 0.00 0.00 67 866.7
20260507081722 10 340 6.4 9.7 0.00 0.00 0.00 67 866.7
20260507081156 10 334 4.8 8.0 0.00 0.00 0.00 67 866.6
20260507075719 10 341 3.2 6.4 0.00 0.00 0.00 65 866.7
20260507075633 10 342 4.8 8.0 0.00 0.00 0.00 65 866.7
20260507074143 10 1 6.4 9.7 0.00 0.00 0.00 65 866.7
20260507072703 10 319 4.8 6.4 0.00 0.00 0.00 66 866.7
20260507071703 10 341 4.8 6.4 0.00 0.00 0.00 66 866.6
20260507070704 10 303 1.6 4.8 0.00 0.00 0.00 64 866.7
20260507070142 10 315 3.2 4.8 0.00 0.00 0.00 64 866.7
20260507064703 10 324 4.8 8.0 0.00 0.00 0.00 65 866.7
20260507063654 10 302 4.8 9.7 0.00 0.00 0.00 64 866.7
20260507063141 10 268 4.8 6.4 0.00 0.00 0.00 63 866.7
20260507062133 10 239 3.2 6.4 0.00 0.00 0.00 64 866.7
20260507061606 11 245 4.8 6.4 0.00 0.00 0.00 62 866.7
20260507055651 11 268 3.2 4.8 0.00 0.00 0.00 60 866.8
20260507054652 11 347 1.6 8.0 0.00 0.00 0.00 58 866.9
20260507053648 12 54 6.4 16.1 0.00 0.00 0.00 57 866.9
20260507053134 12 41 9.7 16.1 0.00 0.00 0.00 56 867.0
20260507051648 12 29 9.7 16.1 0.00 0.00 0.00 56 867.0
20260507051131 12 13 9.7 19.3 0.00 0.00 0.00 57 867.0
20260507045643 12 39 8.0 14.5 0.00 0.00 0.00 59 866.9
20260507044642 11 279 6.4 11.3 0.00 0.00 0.00 61 866.9
20260507043643 11 7 6.4 9.7 0.00 0.00 0.00 61 866.9
20260507042643 11 334 6.4 16.1 0.00 0.00 0.00 60 866.9
20260507041643 11 40 8.0 14.5 0.00 0.00 0.00 59 866.9
20260507040637 11 36 6.4 11.3 0.00 0.00 0.00 61 866.8
20260507035638 11 21 6.4 11.3 0.00 0.00 0.00 61 866.8
20260507034637 11 332 4.8 8.0 0.00 0.00 0.00 61 866.8
20260507033636 11 31 4.8 8.0 0.00 0.00 0.00 60 866.8
20260507032636 11 24 6.4 11.3 0.00 0.00 0.00 60 866.8
20260507031635 11 24 4.8 12.9 0.00 0.00 0.00 60 866.8
20260507030636 11 27 6.4 17.7 0.00 0.00 0.00 60 866.8
20260507025632 10 35 6.4 11.3 0.00 0.00 0.00 62 866.7
20260507024633 11 67 9.7 14.5 0.00 0.00 0.00 61 866.7
20260507023632 11 73 9.7 14.5 0.00 0.00 0.00 60 866.8
20260507022632 11 99 8.0 12.9 0.00 0.00 0.00 58 866.8
20260507021633 12 76 8.0 14.5 0.00 0.00 0.00 57 866.9
20260507020633 12 50 9.7 19.3 0.00 0.00 0.00 56 867.0
20260507015633 12 46 9.7 17.7 0.00 0.00 0.00 55 867.0
20260507014633 13 74 11.3 17.7 0.00 0.00 0.00 53 867.1
20260507014106 13 77 12.9 17.7 0.00 0.00 0.00 52 867.1
20260507012632 13 54 12.9 17.7 0.00 0.00 0.00 51 867.2
20260507012113 14 51 14.5 20.9 0.00 0.00 0.00 49 867.2
20260507010632 15 51 14.5 19.3 0.00 0.00 0.00 48 867.3
20260507005632 15 52 14.5 20.9 0.00 0.00 0.00 47 867.4
20260507005114 15 110 14.5 22.5 0.00 0.00 0.00 46 867.4
20260507003629 16 72 14.5 22.5 0.00 0.00 0.00 46 867.5
20260507002628 16 47 14.5 24.1 0.00 0.00 0.00 45 867.5
20260507002603 16 48 12.9 24.1 0.00 0.00 0.00 45 867.6
20260507001109 16 60 14.5 22.5 0.00 0.00 0.00 45 867.6
20260506235629 16 52 14.5 22.5 0.00 0.00 0.00 44 867.6
20260506235551 17 53 9.7 17.7 0.00 0.00 0.00 43 867.7
20260506233627 16 101 12.9 24.1 0.00 0.00 0.00 45 867.6
20260506232627 16 68 12.9 19.3 0.00 0.00 0.00 45 867.6
20260506232104 17 49 8.0 19.3 0.00 0.00 0.00 44 867.6
20260506231104 17 190 8.0 20.9 0.00 0.00 0.00 42 867.9
20260506230116 17 74 11.3 20.9 0.00 0.00 0.00 42 867.8
20260506224628 17 61 8.0 17.7 0.00 0.00 0.00 44 867.7
20260506223625 17 120 9.7 19.3 0.00 0.00 0.00 43 867.7
20260506222624 17 220 8.0 19.3 0.00 0.00 0.00 42 867.8
20260506221624 17 65 11.3 20.9 0.00 0.00 0.00 43 867.8
20260506220625 17 79 8.0 17.7 0.00 0.00 0.00 43 867.8
20260506215625 17 108 9.7 20.9 0.00 0.00 0.00 44 867.8
20260506214623 17 38 9.7 22.5 0.00 0.00 0.00 43 867.7
20260506213623 17 53 9.7 22.5 0.00 0.00 0.00 44 867.8
20260506212624 17 57 8.0 22.5 0.00 0.00 0.00 44 867.8
20260506211623 17 236 8.0 19.3 0.00 0.00 0.00 44 867.8
20260506210624 17 55 8.0 20.9 0.00 0.00 0.00 47 867.7
20260506205624 17 77 11.3 19.3 0.00 0.00 0.00 45 867.8
20260506204624 16 103 8.0 17.7 0.00 0.00 0.00 49 867.7
20260506203620 16 13 11.3 24.1 0.00 0.00 0.00 48 867.6
20260506202620 16 73 9.7 29.0 0.00 0.03 0.00 50 867.7
20260506201620 16 60 11.3 27.4 0.00 0.03 0.00 49 867.6
20260506200620 16 84 11.3 22.5 0.00 0.03 0.00 49 867.7
20260506195621 15 61 11.3 20.9 0.00 0.03 0.00 50 867.7
20260506194621 15 79 11.3 24.1 0.00 0.03 0.00 52 867.4
20260506194059 15 77 12.9 24.1 0.00 0.03 0.00 53 867.5
20260506192620 15 154 8.0 19.3 0.00 0.03 0.00 50 867.5
20260506191619 14 158 11.3 20.9 0.00 0.05 0.00 53 867.3
20260506190619 14 71 11.3 24.1 0.00 0.05 0.00 54 867.4
20260506185620 14 156 14.5 25.7 0.00 0.05 0.00 53 867.4
20260506184620 14 73 12.9 20.9 0.00 0.05 0.00 54 867.4
20260506184107 14 82 9.7 22.5 0.00 0.05 0.00 54 867.3
20260506182615 14 83 8.0 22.5 0.00 0.05 0.00 55 867.3
20260506181615 14 102 6.4 16.1 0.00 0.05 0.00 54 867.3
20260506180615 13 77 8.0 19.3 0.00 0.05 0.00 56 867.3
20260506175615 13 43 11.3 22.5 0.00 0.05 0.00 56 867.2
20260506174615 13 92 9.7 19.3 0.00 0.05 0.00 55 867.2
20260506173615 13 224 9.7 22.5 0.00 0.05 0.00 55 867.3
20260506172615 13 162 11.3 24.1 0.00 0.05 0.00 55 867.2
20260506171616 14 132 8.0 19.3 0.00 0.05 0.00 53 867.4
20260506170616 13 220 9.7 20.9 0.00 0.05 0.00 55 867.3
20260506165616 13 42 11.3 22.5 0.00 0.05 0.00 55 867.3
20260506164616 14 271 6.4 19.3 0.00 0.05 0.00 52 867.4
20260506163616 13 321 8.0 20.9 0.00 0.08 0.00 53 867.3
20260506162612 13 248 8.0 20.9 0.00 0.10 0.00 53 867.3
20260506161613 13 99 8.0 27.4 0.00 0.10 0.00 53 867.3
20260506160613 12 60 9.7 25.7 0.00 0.10 0.00 56 867.1
20260506155613 12 80 14.5 24.1 0.00 0.10 0.00 57 867.1
20260506154613 12 128 11.3 22.5 0.00 0.13 0.00 58 867.1
20260506153611 12 74 12.9 25.7 0.00 0.13 0.00 57 867.0
20260506152607 11 73 11.3 24.1 0.00 0.13 0.00 61 866.9
20260506151607 11 112 14.5 27.4 0.00 0.15 0.00 58 867.0
20260506150608 11 93 14.5 29.0 0.00 0.15 0.00 59 867.0
20260506145608 11 79 16.1 30.6 0.00 0.15 0.00 62 866.8
20260506144607 10 195 17.7 32.2 0.00 0.15 0.00 65 866.9
20260506143609 10 103 14.5 30.6 0.00 0.15 0.00 66 866.8
20260506142607 10 61 19.3 25.7 0.00 0.18 0.00 67 866.7
20260506141610 10 54 19.3 27.4 0.00 0.18 0.00 69 866.6
20260506140607 10 93 16.1 27.4 0.00 0.18 0.00 69 866.7
20260506135608 9 100 12.9 29.0 0.00 0.20 0.00 71 866.6
20260506134607 8 81 14.5 30.6 0.00 0.20 0.00 73 866.5
20260506133608 8 86 14.5 24.1 0.00 0.23 0.00 75 866.5
20260506132603 8 88 16.1 24.1 0.00 0.23 0.00 75 866.5
20260506132038 8 89 19.3 32.2 0.00 0.23 0.00 76 866.3
20260506130603 8 86 17.7 24.1 0.00 0.23 0.00 77 866.3
20260506130049 8 87 17.7 27.4 0.00 0.25 0.00 78 866.3
20260506125049 8 63 17.7 30.6 0.00 0.25 0.00 78 866.3
20260506123604 8 69 16.1 30.6 0.00 0.25 0.00 79 866.3
20260506122602 8 89 14.5 22.5 0.00 0.25 0.00 80 866.3
20260506121602 8 76 14.5 27.4 0.00 0.25 0.00 80 866.3
20260506120602 8 84 17.7 25.7 0.00 0.25 0.00 80 866.3
20260506120048 8 90 16.1 24.1 0.00 0.25 0.00 79 866.3
20260506114602 8 77 16.1 24.1 0.00 0.25 0.00 79 866.3
20260506113603 8 63 16.1 29.0 0.00 0.25 0.00 79 866.3
20260506113531 8 85 17.7 32.2 0.00 0.25 0.00 79 866.3
20260506111559 8 50 19.3 32.2 0.00 0.25 0.00 80 866.3
20260506110559 8 67 16.1 25.7 0.00 0.25 0.00 80 866.3
20260506105559 9 73 16.1 20.9 0.00 0.25 0.00 79 866.5
20260506104559 9 83 16.1 27.4 0.00 0.25 0.00 77 866.5
20260506103600 9 90 16.1 27.4 0.00 0.25 0.00 76 866.5
20260506102600 9 82 14.5 24.1 0.00 0.25 0.00 76 866.5
20260506102522 9 80 12.9 27.4 0.00 0.25 0.00 76 866.5
20260506100558 9 91 14.5 24.1 0.00 0.25 0.00 76 866.5
20260506095558 9 87 14.5 25.7 0.00 0.25 0.00 76 866.5
20260506094559 9 105 14.5 25.7 0.00 0.25 0.00 75 866.5